FW4250 Weather Reports


Display with metric or nautical units.
time (UTC)temp
F
wind
direction
speed
MPH
gust
MPH
rain 1hr
in
rain 24hr
in
rain mn
in
humidity
%
barometer
mb
20260502202552 70 159 6.0 10.0 0.00 0.02 0.02 72 986.5
20260502202054 70 142 6.0 11.0 0.00 0.02 0.02 73 986.6
20260502201551 70 168 6.0 11.0 0.00 0.02 0.02 73 986.6
20260502201051 70 200 5.0 10.0 0.00 0.02 0.02 74 986.6
20260502200551 70 180 6.0 10.0 0.00 0.02 0.02 74 986.7
20260502200051 70 174 7.0 11.0 0.00 0.02 0.02 73 986.8
20260502195550 70 172 5.0 11.0 0.00 0.02 0.02 72 987.0
20260502195050 70 190 5.0 10.0 0.00 0.02 0.02 73 987.1
20260502194554 70 189 5.0 10.0 0.00 0.02 0.02 72 987.1
20260502194051 70 198 4.0 9.0 0.00 0.02 0.02 73 987.2
20260502193551 70 198 5.0 9.0 0.00 0.02 0.02 74 987.2
20260502193050 70 130 5.0 9.0 0.00 0.02 0.02 72 987.2
20260502192552 70 213 5.0 9.0 0.00 0.02 0.02 74 987.3
20260502192049 69 210 3.0 9.0 0.00 0.02 0.02 74 987.3
20260502191551 69 176 5.0 9.0 0.00 0.02 0.02 73 987.4
20260502191052 70 224 5.0 10.0 0.00 0.02 0.02 71 987.4
20260502190549 70 207 5.0 8.0 0.00 0.02 0.02 73 987.5
20260502185548 70 184 6.0 12.0 0.00 0.02 0.02 70 987.6
20260502185048 71 167 5.0 8.0 0.00 0.02 0.02 70 987.7
20260502184547 70 175 5.0 8.0 0.00 0.02 0.02 67 987.6
20260502184046 70 226 4.0 9.0 0.00 0.02 0.02 70 987.6
20260502183545 69 224 4.0 9.0 0.00 0.02 0.02 70 987.7
20260502183056 69 196 4.0 8.0 0.00 0.02 0.02 69 987.7
20260502182544 69 211 5.0 10.0 0.00 0.02 0.02 72 987.7
20260502182043 69 173 4.0 11.0 0.00 0.02 0.02 73 987.7
20260502181541 68 199 5.0 9.0 0.00 0.02 0.02 74 987.7
20260502181043 67 177 1.0 4.0 0.00 0.02 0.02 75 987.8
20260502180539 66 178 2.0 5.0 0.00 0.02 0.02 77 987.6
20260502164022 58 35 0.0 3.0 0.02 0.02 0.02 97 988.3
20260502163521 58 35 0.0 3.0 0.02 0.02 0.02 97 988.3
20260502163042 58 35 0.0 3.0 0.02 0.02 0.02 97 988.4
20260502162523 58 34 0.0 1.0 0.02 0.02 0.02 97 988.4
20260502162024 58 274 0.0 3.0 0.02 0.02 0.02 97 988.6
20260502161520 58 274 0.0 3.0 0.02 0.02 0.02 97 988.5
20260502161019 58 265 0.0 3.0 0.02 0.02 0.02 97 988.6
20260502160526 57 125 0.0 3.0 0.02 0.02 0.02 97 988.6
20260502152009 54 209 2.0 7.0 0.00 0.00 0.00 97 988.1
20260502151509 54 148 1.0 6.0 0.00 0.00 0.00 96 987.9
20260502151008 54 140 1.0 4.0 0.00 0.00 0.00 96 987.7
20260502150507 53 140 1.0 4.0 0.00 0.00 0.00 96 987.7
20260502130551 53 133 0.0 0.0 0.00 0.00 0.00 96 987.5
20260502130105 53 133 0.0 0.0 0.00 0.00 0.00 96 987.5
20260502123549 54 138 0.0 0.0 0.00 0.00 0.00 96 987.5
20260502123058 53 138 0.0 0.0 0.00 0.00 0.00 96 987.4
20260502122548 53 138 0.0 0.0 0.00 0.00 0.00 96 987.4
20260502122048 53 138 0.0 0.0 0.00 0.00 0.00 96 987.4
20260502121549 53 138 0.0 0.0 0.00 0.00 0.00 96 987.3
20260502121048 53 138 0.0 0.0 0.00 0.00 0.00 96 987.3
20260502120548 53 138 0.0 0.0 0.00 0.00 0.00 96 987.3
20260502115549 53 139 0.0 0.0 0.00 0.00 0.00 95 987.2
20260502115048 53 139 0.0 0.0 0.00 0.00 0.00 96 987.2
20260502114550 53 139 0.0 0.0 0.00 0.00 0.00 96 987.2
20260502114048 53 139 0.0 0.0 0.00 0.00 0.00 96 987.1
20260502113549 53 139 0.0 0.0 0.00 0.00 0.00 96 987.1
20260502113050 53 139 0.0 0.0 0.00 0.00 0.00 96 987.0
20260502112546 53 139 0.0 0.0 0.00 0.00 0.00 96 987.0
20260502112045 53 139 0.0 0.0 0.00 0.00 0.00 95 987.0
20260502111548 53 139 0.0 0.0 0.00 0.00 0.00 96 987.0
20260502111045 52 139 0.0 0.0 0.00 0.00 0.00 96 986.9
20260502110547 52 139 0.0 0.0 0.00 0.00 0.00 95 986.9
20260502110045 52 139 0.0 0.0 0.00 0.00 0.00 95 986.8
20260502105545 52 139 0.0 0.0 0.00 0.00 0.00 95 986.7
20260502105045 52 139 0.0 0.0 0.00 0.00 0.00 95 986.7
20260502104544 52 139 0.0 0.0 0.00 0.00 0.00 95 986.7
20260502104043 52 139 0.0 0.0 0.00 0.00 0.00 95 986.7
20260502103544 52 139 0.0 0.0 0.00 0.00 0.00 95 986.6
20260502103044 51 139 0.0 0.0 0.00 0.00 0.00 95 986.7
20260502102544 51 139 0.0 0.0 0.00 0.00 0.00 95 986.7
20260502102043 51 139 0.0 0.0 0.00 0.00 0.00 95 986.6
20260502101543 51 139 0.0 0.0 0.00 0.00 0.00 95 986.7
20260502101042 51 139 0.0 0.0 0.00 0.00 0.00 95 986.6
20260502100542 51 139 0.0 0.0 0.00 0.00 0.00 94 986.7
20260502091037 52 139 0.0 0.0 0.00 0.00 0.00 94 986.7
20260502090537 53 139 0.0 0.0 0.00 0.00 0.00 94 986.6
20260502071526 53 139 0.0 0.0 0.00 0.00 0.00 92 987.3
20260502071025 54 139 0.0 0.0 0.00 0.00 0.00 93 987.2
20260502070525 54 139 0.0 0.0 0.00 0.00 0.00 93 987.2
20260502070035 54 139 0.0 0.0 0.00 0.00 0.00 93 987.2
20260502065524 54 139 0.0 0.0 0.00 0.00 0.00 93 987.1
20260502065024 54 139 0.0 0.0 0.00 0.00 0.00 93 987.1
20260502064535 54 139 0.0 0.0 0.00 0.00 0.00 93 987.1
20260502064027 54 139 0.0 0.0 0.00 0.00 0.00 92 987.1
20260502063523 54 139 0.0 0.0 0.00 0.00 0.00 92 987.1
20260502063028 54 139 0.0 0.0 0.00 0.00 0.00 92 987.0
20260502062523 54 139 0.0 0.0 0.00 0.00 0.00 92 987.1
20260502062022 54 139 0.0 0.0 0.00 0.00 0.00 92 987.0
20260502061523 54 139 0.0 0.0 0.00 0.00 0.00 92 987.0
20260502061023 54 139 0.0 0.0 0.00 0.00 0.00 92 987.0
20260502060523 54 139 0.0 0.0 0.00 0.00 0.00 91 987.0
20260502060023 55 139 0.0 0.0 0.00 0.00 0.00 91 986.9
20260502055523 55 139 0.0 0.0 0.00 0.00 0.00 91 986.9
20260502055023 55 139 0.0 0.0 0.00 0.00 0.00 91 986.8
20260502054522 55 139 0.0 0.0 0.00 0.00 0.00 91 987.0
20260502054021 55 139 0.0 0.0 0.00 0.00 0.00 91 986.9
20260502053521 55 139 0.0 0.0 0.00 0.00 0.00 91 986.9
20260502053021 56 139 0.0 0.0 0.00 0.00 0.00 91 986.9
20260502052521 56 139 0.0 0.0 0.00 0.00 0.00 91 987.0
20260502052021 56 139 0.0 0.0 0.00 0.00 0.00 90 986.9
20260502051525 56 139 0.0 0.0 0.00 0.00 0.00 90 987.0
20260502051021 56 139 0.0 0.0 0.00 0.00 0.00 90 986.9
20260502050522 56 139 0.0 0.0 0.00 0.00 0.00 90 987.0
20260502050032 56 139 0.0 0.0 0.00 0.00 0.00 90 987.0
20260502045521 56 139 0.0 0.0 0.00 0.00 0.00 90 986.9
20260502045024 56 139 0.0 0.0 0.00 0.00 0.00 89 986.9
20260502044520 57 139 0.0 0.0 0.00 0.00 0.00 89 986.8
20260502044019 57 139 0.0 0.0 0.00 0.00 0.00 89 986.8
20260502043519 57 139 0.0 0.0 0.00 0.00 0.00 89 986.7
20260502043020 57 139 0.0 0.0 0.00 0.00 0.00 89 986.6
20260502042519 57 139 0.0 0.0 0.00 0.00 0.00 88 986.5
20260502042021 57 139 0.0 0.0 0.00 0.00 0.00 88 986.5
20260502041521 57 139 0.0 0.0 0.00 0.00 0.00 88 986.5
20260502041020 58 139 0.0 0.0 0.00 0.00 0.00 87 986.5
20260502040518 58 139 0.0 0.0 0.00 0.00 0.00 87 986.4
20260502040018 58 139 0.0 0.0 0.00 0.00 0.00 87 986.4
20260502035518 58 139 0.0 0.0 0.00 0.00 0.00 87 986.4
20260502035019 58 139 0.0 0.0 0.00 0.00 0.00 86 986.4
20260502034532 59 139 0.0 0.0 0.00 0.00 0.00 86 986.3
20260502034022 59 139 0.0 0.0 0.00 0.00 0.00 86 986.2
20260502033518 59 139 0.0 0.0 0.00 0.00 0.00 85 986.1
20260502033017 59 139 0.0 0.0 0.00 0.00 0.00 85 986.1
20260502032516 59 138 0.0 4.0 0.00 0.00 0.00 85 986.0
20260502032017 60 138 0.0 4.0 0.00 0.00 0.00 84 986.0
20260502031517 60 179 0.0 3.0 0.00 0.00 0.00 84 985.9
20260502031017 60 179 0.0 4.0 0.00 0.00 0.00 84 985.9
20260502030517 61 180 2.0 4.0 0.00 0.00 0.00 83 985.8
20260502030017 61 183 0.0 3.0 0.00 0.00 0.00 82 985.7
20260502025517 61 183 1.0 4.0 0.00 0.00 0.00 82 985.6
20260502025016 62 183 1.0 4.0 0.00 0.00 0.00 81 985.6
20260502024518 62 183 0.0 4.0 0.00 0.00 0.00 81 985.5
20260502024015 62 183 1.0 4.0 0.00 0.00 0.00 80 985.5
20260502023515 63 182 0.0 0.0 0.00 0.00 0.00 80 985.4
20260502023015 63 182 0.0 0.0 0.00 0.00 0.00 79 985.4
20260502022515 63 182 0.0 0.0 0.00 0.00 0.00 79 985.4
20260502022015 63 182 0.0 3.0 0.00 0.00 0.00 79 985.3
20260502021516 64 182 0.0 8.0 0.00 0.00 0.00 78 985.3
20260502021015 64 182 2.0 8.0 0.00 0.00 0.00 77 985.3
20260502020515 65 172 3.0 8.0 0.00 0.00 0.00 76 985.3
20260502020014 66 204 1.0 4.0 0.00 0.00 0.00 75 985.3
20260502015514 66 204 2.0 5.0 0.00 0.00 0.00 74 985.3
20260502015015 67 205 2.0 5.0 0.00 0.00 0.00 73 985.4
20260502014530 67 205 0.0 7.0 0.00 0.00 0.00 74 985.2
20260502014014 67 170 1.0 7.0 0.00 0.00 0.00 73 985.2
20260502013513 67 204 3.0 7.0 0.00 0.00 0.00 73 985.3
20260502013013 67 174 4.0 8.0 0.00 0.00 0.00 72 985.2
20260502012513 68 178 3.0 7.0 0.00 0.00 0.00 72 985.2
20260502012013 68 178 2.0 5.0 0.00 0.00 0.00 72 985.3
20260502011513 68 178 1.0 5.0 0.00 0.00 0.00 73 985.2
20260502011013 68 182 3.0 7.0 0.00 0.00 0.00 72 985.2
20260502010512 68 182 4.0 8.0 0.00 0.00 0.00 71 985.1
20260502010012 68 171 3.0 8.0 0.00 0.00 0.00 70 985.2
20260502005512 69 169 4.0 8.0 0.00 0.00 0.00 70 985.1
20260502005012 69 175 3.0 8.0 0.00 0.00 0.00 71 985.2
20260502004511 69 178 5.0 8.0 0.00 0.00 0.00 70 985.2
20260502004011 69 170 5.0 8.0 0.00 0.00 0.00 71 985.3
20260502003510 69 160 3.0 7.0 0.00 0.00 0.00 71 985.3
20260502003013 69 190 2.0 8.0 0.00 0.00 0.00 71 985.2
20260502002510 69 178 5.0 9.0 0.00 0.00 0.00 70 985.3
20260502002010 69 175 6.0 9.0 0.00 0.00 0.00 69 985.3
20260502001517 70 178 4.0 8.0 0.00 0.00 0.00 69 985.2
20260502001010 70 136 4.0 7.0 0.00 0.00 0.00 68 985.3
20260502000509 70 165 3.0 9.0 0.00 0.00 0.00 70 985.4
20260502000032 70 175 5.0 9.0 0.00 0.00 0.00 69 985.4
20260501235509 70 177 3.0 8.0 0.00 0.00 0.00 70 985.4
20260501235008 70 192 5.0 11.0 0.00 0.00 0.00 70 985.4
20260501234507 70 190 7.0 11.0 0.00 0.00 0.00 68 985.5
20260501234007 70 159 7.0 13.0 0.00 0.00 0.00 68 985.6
20260501233507 71 167 7.0 13.0 0.00 0.00 0.00 68 985.5
20260501233007 71 195 7.0 10.0 0.00 0.00 0.00 68 985.5
20260501232506 71 192 6.0 11.0 0.00 0.00 0.00 68 985.5
20260501232011 71 180 7.0 11.0 0.00 0.00 0.00 68 985.5
20260501231516 71 176 6.0 10.0 0.00 0.00 0.00 68 985.5
20260501231006 72 207 7.0 14.0 0.00 0.00 0.00 67 985.5
20260501230510 72 197 6.0 14.0 0.00 0.00 0.00 68 985.5
20260501230005 72 179 7.0 12.0 0.00 0.00 0.00 67 985.6
20260501225505 72 220 6.0 12.0 0.00 0.00 0.00 67 985.6
20260501225004 72 223 5.0 12.0 0.00 0.00 0.00 69 985.6
20260501224503 72 177 7.0 14.0 0.00 0.00 0.00 68 985.7
20260501224003 72 219 6.0 10.0 0.00 0.00 0.00 67 985.7
20260501223502 72 209 6.0 11.0 0.00 0.00 0.00 67 985.8
20260501223002 72 186 6.0 10.0 0.00 0.00 0.00 67 986.0
20260501222502 72 179 6.0 11.0 0.00 0.00 0.00 67 986.2
20260501222001 72 194 5.0 11.0 0.00 0.00 0.00 66 986.2
20260501221605 73 173 8.0 11.0 0.00 0.00 0.00 65 986.3
20260501221059 73 168 5.0 12.0 0.00 0.00 0.00 67 986.3
20260501220559 72 176 8.0 11.0 0.00 0.00 0.00 67 986.4
20260501215601 72 178 8.0 13.0 0.00 0.00 0.00 66 986.5
20260501215058 73 157 6.0 10.0 0.00 0.00 0.00 68 986.5
20260501214558 73 242 6.0 11.0 0.00 0.00 0.00 67 986.5
20260501214057 73 175 6.0 10.0 0.00 0.00 0.00 66 986.6
20260501213601 73 200 5.0 11.0 0.00 0.00 0.00 67 986.6
20260501213105 73 202 6.0 11.0 0.00 0.00 0.00 67 986.7
20260501212559 73 178 7.0 13.0 0.00 0.00 0.00 66 986.7
20260501212058 74 221 7.0 11.0 0.00 0.00 0.00 66 986.7
20260501211559 74 170 5.0 10.0 0.00 0.00 0.00 65 986.7
20260501211056 74 135 5.0 9.0 0.00 0.00 0.00 66 986.7
20260501210556 74 125 4.0 9.0 0.00 0.00 0.00 65 986.8
20260501210056 74 206 4.0 10.0 0.00 0.00 0.00 66 986.8
20260501205555 73 179 4.0 10.0 0.00 0.00 0.00 66 986.7
20260501205054 73 187 5.0 12.0 0.00 0.00 0.00 66 986.8
20260501204554 73 169 6.0 12.0 0.00 0.00 0.00 67 986.7
20260501204054 73 180 5.0 9.0 0.00 0.00 0.00 66 986.8
20260501203553 73 184 4.0 9.0 0.00 0.00 0.00 67 986.9
20260501203052 72 158 4.0 9.0 0.00 0.00 0.00 67 986.8